DELTA 1 DEB, 42579

Orbit data source: Space-Track

DELTA 1 DEB, 42579 is space debris in SSO originally from a launch on Tue, 06 Nov 1973 UTC launched from the Air Force Western Test Range (AFWTR). Debris objects in space refer to the collection of defunct objects orbiting the Earth. Examples of debris include non-operational satellites, rocket bodies, and fragments generated from explosions, collisions, or faulty payload assembly.

Loading next visibility...
Identifier
42579, 1973-086HT
Orbit
SSO
Country
Flag of USUS
Related business
Manufacturer
Unknown
Mission
Spacecraft
Bus & Motor
Unknown
Mass
Unknown
Launch date (UTC)
1973-11-06 (52 years ago)
Launch vehicle
Unknown
Launch site
Air Force Western Test Range (AFWTR)
Object type
Payload
Rocket body
Debris
Shape & HBR
Unknown shape, 0.1 m
Radar Cross Section
Small (<0.1 m²)

Expand to show TLE details & history
Last TLE update: 2 weeks ago

TLE from 2 weeks ago
0 DELTA 1 DEB
1 42579U 73086HT  26024.00341196  .00000062  00000-0  95060-3 0  9990
2 42579 102.6037  39.4744 0081094 252.5091 106.7087 12.26779026192918
Epoch: 2026-01-24T00:04Z
TLE epoch observation values (Epoch: 2026-01-24T00:04:54.793Z)
Latitude
Longitude
-85.08802°
Altitude
1,584.653 km
Speed
7.068 km/s
True Right ascension
02h 37m 53s
True Declination
0° 00' 00"
Sunlit
Object was in daylight at epoch
Visualization orbit readout
Latitude
Unknown
Longitude
Unknown
Altitude
Unknown
Speed
Unknown
Apparent Right ascension
Unknown
Apparent Declination
Unknown
Sunlit
N/A
Visualization observer readout
Local Sidereal Time
22:50:33
Azimuth
Unknown
Elevation
Unknown
Doppler factor
Unknown
Orbital elements
Apogee altitude
1,625.159 km
Perigee altitude
1,496.399 km
Semi-major axis
7,938.916 km
Eccentricity
0.00811
Inclination
102.6037°
RAAN
39.4744°
Arg. of periapsis
252.5091°
True anomaly
107.59611°
Mean anomaly
106.7087°
Eccentric anomaly
107.15267°
Mean motion
3.06832 °/min
Orbital period
117.33 mins
BSTAR
0.0009506
Loading maneuver chart data...
Computing Atmospheric mass density...
Loading historical data...
Loading historical data...
Loading historical data...
Loading historical data...
Loading historical data...
Loading historical data...
Loading historical data...

Documentation

Showing up to 5 results
|